BELLINGHAM, WA current weather conditions

sailwx.info

Wind from 070 at 3 knots

Air temperature 6.0° C
Visibility: greater than 5.2 NM
Dewpoint 3.0° C
Present weather: Haze.

Last reported at 2019-Dec-14 15:00 UTC.
Time now 2019-Dec-14 16:17 UTC

Location: N 48°48' W 122°32'.
View on Google Maps.

See reports from other nearby stations

  
Tides and Currents Weather Stations Pressure Air Temp Water Temp Dewpoint Dewpoint Depression Visibility Wind Speed Wind Dir Waves Ship Positions
date/time (UTC)wind fromknots sea level pressurealtimeterstation pressurevisibilityair tempwater tempwave heightnotes
2019-Dec-14 15:00 070 3 5.2 6.0 Haze.
2019-Dec-14 14:55 5.2 7.0 Haze.
2019-Dec-14 14:53 5.2 6.7 Haze.
2019-Dec-14 14:50 040 3 5.2 7.0 Haze.
2019-Dec-14 14:45 050 3 5.2 7.0 Haze.
2019-Dec-14 14:40 5.2 7.0 Haze.
2019-Dec-14 14:35 060 3 5.2 7.0 Haze.
2019-Dec-14 14:30 060 3 5.2 7.0 Haze.
2019-Dec-14 14:25 070 4 5.2 7.0 Haze.
2019-Dec-14 14:20 070 4 5.2 7.0 Haze.
2019-Dec-14 14:15 060 4 5.2 7.0 Haze.
2019-Dec-14 14:05 5.2 7.0 Haze.
2019-Dec-14 14:04 5.2 6.7 Haze.
2019-Dec-14 13:55 060 3 6.1 7.0
2019-Dec-14 13:53 040 2 5.2 6.7 Haze.
2019-Dec-14 13:50 010 3 5.2 7.0 Haze.
2019-Dec-14 13:45 4.3 7.0 Haze.
2019-Dec-14 13:35 4.3 6.0 Haze.
2019-Dec-14 13:30 350 4 4.3 6.0 Haze.
2019-Dec-14 13:25 320 5 4.3 5.6 Mist.
2019-Dec-14 13:20 310 4 3.5 6.0 Haze.
2019-Dec-14 13:15 3.5 6.0 Haze.
2019-Dec-14 13:10 3.5 6.0 Haze.
2019-Dec-14 13:05 010 3 2.6 6.0 Haze.
2019-Dec-14 13:00 2.6 6.0 Haze.
2019-Dec-14 12:55 020 3 3.0 6.0 Haze.
2019-Dec-14 12:53 020 2 2.6 6.1 Haze.
2019-Dec-14 12:51 010 2 2.6 6.0 Haze.
2019-Dec-14 12:50 010 3 3.0 6.0 Haze.
2019-Dec-14 12:40 3.5 6.0 Haze.
2019-Dec-14 12:35 350 3 3.5 6.0 Haze.
2019-Dec-14 12:30 320 3 3.5 6.0 Haze.
2019-Dec-14 12:25 4.3 7.0 Haze.
2019-Dec-14 12:22 4.3 6.7 Haze.
2019-Dec-14 12:20 4.3 7.0 Haze.
2019-Dec-14 12:15 4.3 7.0 Haze.
2019-Dec-14 12:10 3.5 7.0 Haze.
2019-Dec-14 12:05 3.5 7.0 Haze.
2019-Dec-14 12:00 3.0 7.0 Haze.
2019-Dec-14 11:55 3.5 7.0 Haze.
2019-Dec-14 11:53 3.5 6.7 Haze.
2019-Dec-14 11:50 3.5 7.0 Haze.
2019-Dec-14 11:45 3.5 7.0 Haze.
2019-Dec-14 11:35 3.5 7.0 Haze.
2019-Dec-14 11:33 3.5 6.7 Haze.
2019-Dec-14 11:30 3.5 7.0 Haze.
2019-Dec-14 11:25 3.5 7.0 Haze.
2019-Dec-14 11:24 3.5 6.7 Haze.
2019-Dec-14 11:20 3.5 7.0 Haze.
2019-Dec-14 11:15 3.5 7.0 Haze.
2019-Dec-14 11:05 3.5 7.0 Haze.
2019-Dec-14 11:00 3.5 7.0 Haze.
2019-Dec-14 10:55 3.5 7.0 Haze.
2019-Dec-14 10:53 3.5 6.7 Haze.
2019-Dec-14 10:45 060 3 3.5 7.0 Haze.
2019-Dec-14 10:40 060 3 3.5 7.0 Haze.
2019-Dec-14 10:35 070 3 3.5 7.0 Haze.
2019-Dec-14 10:30 3.5 7.0 Haze.
2019-Dec-14 10:25 010 3 3.5 7.0 Haze.
2019-Dec-14 10:15 050 4 3.5 7.0 Haze.
2019-Dec-14 10:10 030 4 3.5 7.0 Haze.
2019-Dec-14 10:05 030 4 2.6 7.0 Haze.
2019-Dec-14 10:00 020 4 2.6 7.0 Haze.
2019-Dec-14 09:55 2.6 7.0 Haze.
2019-Dec-14 09:53 010 4 2.6 6.7 Haze.
2019-Dec-14 09:50 010 4 2.2 7.0 Haze.
2019-Dec-14 09:48 010 2 2.2 7.0 Haze.
2019-Dec-14 09:40 360 4 2.6 7.0 Haze.
2019-Dec-14 09:38 350 2 2.6 6.7 Haze.
2019-Dec-14 09:35 350 3 2.6 7.0 Haze.
2019-Dec-14 09:30 340 3 2.6 7.0 Haze.
2019-Dec-14 09:22 2.6 6.7 Haze.
2019-Dec-14 09:20 2.2 7.0 Haze.
2019-Dec-14 09:05 320 3 1.1 7.0 Haze.
2019-Dec-14 09:00 330 3 1.1 7.0 Haze.
2019-Dec-14 08:53 0.9 7.2 Haze.
2019-Dec-14 08:46 0.9 6.7 Haze.
2019-Dec-14 08:45 0.9 7.0 Mist.
2019-Dec-14 08:40 0.7 7.0 Haze.
2019-Dec-14 08:30 0.7 7.0 Haze.
2019-Dec-14 08:25 0.7 7.0 Haze.
2019-Dec-14 08:21 0.7 6.7 Haze.
2019-Dec-14 08:20 0.9 7.0 Haze.
2019-Dec-14 08:08 1.3 7.2 Haze.
2019-Dec-14 07:55 1.3 7.0 Haze.
2019-Dec-14 07:53 1.3 7.2 Haze.
2019-Dec-14 07:40 1.3 7.0 Haze.
2019-Dec-14 07:30 1.3 7.0 Haze.
2019-Dec-14 07:25 1.3 7.0 Haze.
2019-Dec-14 07:23 1.3 7.2 Haze.
2019-Dec-14 07:20 1.3 7.0 Haze.
2019-Dec-14 07:15 1.3 7.0 Haze.
2019-Dec-14 07:10 1.3 7.0 Haze.
2019-Dec-14 07:05 1.1 7.0 Haze.
2019-Dec-14 07:02 010 2 1.1 7.2 Haze.
2019-Dec-14 07:00 0.9 7.0 Haze.
2019-Dec-14 06:55 0.7 7.0 Mist.
2019-Dec-14 06:53 0.7 6.7 Mist.
2019-Dec-14 06:50 0.7 7.0 Mist.
2019-Dec-14 06:45 0.4 7.0 Haze.
2019-Dec-14 06:41 0.4 6.7
2019-Dec-14 06:35 0.4 7.0 Haze.
2019-Dec-14 06:32 0.7 6.7 Haze.
2019-Dec-14 06:30 0.9 7.0 Haze.
2019-Dec-14 06:25 1.3 7.0 Haze.
2019-Dec-14 06:20 2.6 7.0 Light rain.
2019-Dec-14 06:15 040 3 2.6 7.0 Light rain.
2019-Dec-14 06:05 2.6 7.0 Light rain.
2019-Dec-14 06:00 020 3 2.6 7.0 Light rain.
2019-Dec-14 05:55 2.2 7.0 Light rain.
2019-Dec-14 05:53 2.6 7.2 Light rain.
2019-Dec-14 05:50 2.6 7.0 Light rain.
2019-Dec-14 05:45 3.5 8.0 Light rain.
2019-Dec-14 05:40 020 3 3.5 7.0 Light rain.
2019-Dec-14 05:35 2.6 7.0 Light rain.
2019-Dec-14 05:30 3.5 7.0 Light rain.
2019-Dec-14 05:25 5.2 7.0 Haze.
2019-Dec-14 05:15 360 3 7.0 7.0
2019-Dec-14 05:10 8.7 7.0
2019-Dec-14 04:53 8.7 7.2
2019-Dec-14 04:50 8.7 7.0
2019-Dec-14 04:45 8.7 7.0
2019-Dec-14 04:40 8.7 7.0
2019-Dec-14 04:30 8.7 7.0
2019-Dec-14 04:25 8.7 7.0
2019-Dec-14 04:20 8.7 7.0
2019-Dec-14 04:15 8.7 7.0
2019-Dec-14 04:10 8.7 7.0
2019-Dec-14 04:05 8.7 7.0
2019-Dec-14 03:55 8.7 7.0
2019-Dec-14 03:53 8.7 7.2
2019-Dec-14 03:50 160 3 8.7 7.0
2019-Dec-14 03:45 180 3 8.7 7.0
2019-Dec-14 03:40 170 3 8.7 7.0
2019-Dec-14 03:35 180 3 8.7 8.0
2019-Dec-14 03:30 180 3 8.7 8.0
2019-Dec-14 03:25 180 3 8.7 8.0
2019-Dec-14 03:20 160 3 8.7 8.0
2019-Dec-14 03:15 170 4 8.7 8.0
2019-Dec-14 03:10 160 5 8.7 8.0
2019-Dec-14 03:05 160 5 8.7 8.0
2019-Dec-14 03:00 160 4 8.7 8.0
2019-Dec-14 02:55 170 4 8.7 8.0
2019-Dec-14 02:53 170 4 8.7 7.8
2019-Dec-14 02:50 170 4 8.7 8.0
2019-Dec-14 02:45 170 4 8.7 8.0
2019-Dec-14 02:35 170 5 8.7 8.0
2019-Dec-14 02:30 160 4 8.7 8.0
2019-Dec-14 02:15 180 4 8.7 8.0
2019-Dec-14 02:10 180 4 8.7 8.0
2019-Dec-14 02:05 170 3 8.7 8.0
2019-Dec-14 01:55 170 3 8.7 8.0
2019-Dec-14 01:53 180 2 8.7 7.8
2019-Dec-14 01:45 170 3 8.7 8.0
2019-Dec-14 01:40 170 4 8.7 8.0
2019-Dec-14 01:35 180 3 8.7 8.0
2019-Dec-14 01:30 170 3 8.7 8.0
2019-Dec-14 01:25 170 4 8.7 8.0
2019-Dec-14 01:20 170 4 8.7 8.0
2019-Dec-14 01:15 170 5 8.7 8.0
2019-Dec-14 01:05 170 5 8.7 8.0
2019-Dec-14 01:00 180 4 8.7 8.0
2019-Dec-14 00:55 180 4 8.7 8.0
2019-Dec-14 00:53 180 4 8.7 8.3
2019-Dec-14 00:50 180 3 8.7 8.0
2019-Dec-14 00:45 170 5 8.7 8.0
2019-Dec-14 00:40 170 6 8.7 8.0 Light rain.
2019-Dec-14 00:35 170 6 7.0 8.0 Light rain.
2019-Dec-14 00:30 170 6 6.1 8.0 Light rain.
2019-Dec-14 00:25 180 6 7.8 8.0 Light rain.
2019-Dec-14 00:15 180 5 8.7 8.0 Light rain.
2019-Dec-14 00:10 190 5 8.7 8.0 Light rain.
2019-Dec-14 00:05 190 4 8.7 8.0 Light rain.
2019-Dec-13 23:55 180 5 8.7 8.0
2019-Dec-13 23:53 180 5 8.7 8.3
2019-Dec-13 23:50 180 5 8.7 8.0
2019-Dec-13 23:40 180 5 8.7 9.0 Light rain.
2019-Dec-13 23:30 180 5 8.7 9.0
2019-Dec-13 23:25 190 4 8.7 9.0
2019-Dec-13 23:15 180 5 8.7 9.0
2019-Dec-13 23:05 190 4 8.7 9.0
2019-Dec-13 23:00 180 7 8.7 9.0
2019-Dec-13 22:55 190 5 8.7 9.0
2019-Dec-13 22:53 180 5 8.7 8.9
2019-Dec-13 22:45 180 5 8.7 9.0
2019-Dec-13 22:40 180 6 8.7 9.0
2019-Dec-13 22:35 170 6 8.7 9.0
2019-Dec-13 22:30 180 7 8.7 9.0
2019-Dec-13 22:25 180 7 8.7 9.0
2019-Dec-13 22:15 180 8 8.7 9.0
2019-Dec-13 22:10 170 6 8.7 9.0
2019-Dec-13 22:05 180 7 8.7 9.0
2019-Dec-13 21:55 170 6 8.7 9.0
2019-Dec-13 21:53 190 6 8.7 8.9
2019-Dec-13 21:50 170 7 8.7 9.0
2019-Dec-13 21:40 170 4 8.7 9.0
2019-Dec-13 21:30 170 4 8.7 9.0
2019-Dec-13 21:15 180 6 8.7 9.0
2019-Dec-13 21:10 170 6 8.7 9.0
2019-Dec-13 21:05 180 6 8.7 9.0
2019-Dec-13 20:55 180 5 8.7 9.0
2019-Dec-13 20:53 180 4 8.7 8.9
2019-Dec-13 20:50 180 4 8.7 9.0
2019-Dec-13 20:35 180 7 8.7 9.0
2019-Dec-13 20:25 180 7 8.7 9.0
2019-Dec-13 20:20 180 8 8.7 9.0
2019-Dec-13 20:10 170 8 8.7 9.0
2019-Dec-13 20:05 180 7 8.7 9.0
2019-Dec-13 19:55 180 7 8.7 9.0
2019-Dec-13 19:53 180 6 8.7 8.9
2019-Dec-13 19:45 180 7 8.7 9.0
2019-Dec-13 19:30 170 10 8.7 9.0
2019-Dec-13 19:10 180 8 8.7 9.0
2019-Dec-13 19:00 170 8 8.7 9.0
2019-Dec-13 18:55 170 8 8.7 8.0
2019-Dec-13 18:53 180 6 8.7 8.3
2019-Dec-13 18:50 180 8 8.7 8.0
2019-Dec-13 18:25 170 10 8.7 8.0
2019-Dec-13 18:20 180 7 8.7 8.0
2019-Dec-13 18:10 180 9 8.7 8.0
2019-Dec-13 18:05 180 9 8.7 8.0
2019-Dec-13 17:55 180 8 8.7 8.0
2019-Dec-13 17:53 180 9 8.7 8.3
2019-Dec-13 17:50 170 8 8.7 8.0
2019-Dec-13 17:35 190 8 8.7 8.0
2019-Dec-13 17:30 180 8 8.7 8.0
2019-Dec-13 17:20 180 8 8.7 8.0
2019-Dec-13 17:10 190 7 8.7 8.0
2019-Dec-13 17:05 180 9 8.7 8.0
2019-Dec-13 17:00 190 9 8.7 8.0
2019-Dec-13 16:55 180 8 8.7 8.0
2019-Dec-13 16:53 180 6 8.7 8.3
2019-Dec-13 16:50 180 8 8.7 8.0
2019-Dec-13 16:45 170 7 8.7 8.0
2019-Dec-13 16:40 170 6 8.7 8.0
2019-Dec-13 16:35 170 3 8.7 8.0 Light rain.
2019-Dec-13 16:30 150 3 7.8 8.0 Light rain.
2019-Dec-13 16:25 130 3 8.7 8.0 Light rain.
2019-Dec-13 16:20 150 5 5.2 8.0 Light rain.
2019-Dec-13 16:15 170 4 4.3 8.0 Light rain.
2019-Dec-13 16:10 180 5 6.1 8.0 Light rain.
2019-Dec-13 16:05 170 6 7.0 8.0 Light rain.
2019-Dec-13 16:00 180 4 5.2 8.0 Light rain.
2019-Dec-13 15:55 170 5 4.3 8.0 Light rain.
2019-Dec-13 15:53 180 5 5.2 8.3 Light rain.
2019-Dec-13 15:50 190 4 6.1 8.0 Light rain.
2019-Dec-13 15:45 170 8 7.8 8.0 Light rain.
2019-Dec-13 15:40 180 7 8.7 8.0 Light rain.
2019-Dec-13 15:30 180 9 8.7 8.0 Light rain.
2019-Dec-13 15:25 180 7 8.7 8.0
2019-Dec-13 15:20 180 7 8.7 8.0
2019-Dec-13 15:15 170 9 8.7 8.0
2019-Dec-13 15:10 180 8 8.7 8.0
2019-Dec-13 15:05 180 7 8.7 8.0
2019-Dec-13 15:00 170 7 8.7 8.0
2019-Dec-13 14:53 170 6 8.7 8.3
2019-Dec-13 14:50 180 6 8.7 8.0
2019-Dec-13 14:45 180 8 8.7 8.0
2019-Dec-13 14:40 180 8 8.7 8.0
2019-Dec-13 14:35 180 7 8.7 8.0
2019-Dec-13 14:30 170 7 8.7 8.0
2019-Dec-13 14:25 170 5 8.7 8.0
2019-Dec-13 14:20 170 7 8.7 8.0
2019-Dec-13 14:15 180 9 8.7 8.0
2019-Dec-13 14:07 180 7 8.7 8.3
2019-Dec-13 13:53 180 6 7.8 7.8 Light rain.
2019-Dec-13 13:50 180 6 5.2 8.0 Light rain. Mist.
2019-Dec-13 13:45 180 4 4.3 8.0 Light rain.
2019-Dec-13 13:40 180 6 5.2 8.0 Light rain.
2019-Dec-13 13:35 170 7 6.1 8.0 Light rain.
2019-Dec-13 13:33 180 6 6.9 7.8 Light rain.
2019-Dec-13 13:30 170 5 7.8 8.0 Light rain.
2019-Dec-13 13:25 170 4 8.7 8.0 Light rain.
2019-Dec-13 13:20 170 7 8.7 8.0 Light rain.
2019-Dec-13 13:15 180 5 8.7 8.0 Light rain.
2019-Dec-13 13:10 170 6 7.0 8.0 Light rain.
2019-Dec-13 13:05 170 8 5.2 8.0 Light rain.
2019-Dec-13 13:03 170 6 5.2 7.8 Light rain.
2019-Dec-13 13:00 170 8 4.3 8.0 Light rain.
2019-Dec-13 12:55 170 8 3.5 8.0 Rain.
2019-Dec-13 12:53 170 8 3.5 7.8 Rain.
2019-Dec-13 12:50 180 6 3.5 8.0 Rain.
2019-Dec-13 12:46 180 7 3.5 7.8 Light rain.
2019-Dec-13 12:40 180 6 3.5 8.0 Rain.
2019-Dec-13 12:35 200 6 5.2 8.0 Rain.
2019-Dec-13 12:30 180 6 7.8 8.0 Light rain.
2019-Dec-13 12:25 190 6 8.7 8.0 Light rain.
2019-Dec-13 12:20 180 7 6.1 8.0 Light rain.
2019-Dec-13 12:13 190 6 4.3 7.8 Light rain.
2019-Dec-13 12:10 170 10 4.3 8.0 Rain.
2019-Dec-13 12:05 190 7 4.3 8.0 Rain.
2019-Dec-13 12:00 180 8 5.2 8.0 Rain.
2019-Dec-13 11:55 190 5 7.8 8.0 Light rain.
2019-Dec-13 11:53 7.8 8.3 Light rain.
2019-Dec-13 11:48 180 6 8.7 8.0 Light rain.
2019-Dec-13 11:45 190 7 8.7 8.0 Light rain.
2019-Dec-13 11:30 170 4 7.8 8.0 Light rain.
2019-Dec-13 11:25 170 6 8.7 8.0 Light rain.
2019-Dec-13 11:20 170 5 8.7 8.0
2019-Dec-13 11:15 170 6 8.7 8.0 Light rain.
2019-Dec-13 11:10 170 8 7.8 8.0 Light rain.
2019-Dec-13 11:00 170 9 8.7 8.0 Light rain.
2019-Dec-13 10:55 170 10 7.8 8.0 Light rain.
2019-Dec-13 10:53 180 7 7.8 8.3 Light rain.
2019-Dec-13 10:50 190 9 7.8 8.0 Light rain.
2019-Dec-13 10:37 180 6 8.7 8.3 Light rain.
2019-Dec-13 10:35 180 7 8.7 8.0 Light rain.
2019-Dec-13 10:30 190 5 8.7 8.0 Light rain.
2019-Dec-13 10:25 180 6 8.7 8.0 Light rain.
2019-Dec-13 10:05 210 4 5.2 8.0 Light rain.
2019-Dec-13 09:53 190 4 4.3 8.3 Light rain.
2019-Dec-13 09:50 180 5 4.3 8.0 Light rain.
2019-Dec-13 09:45 190 5 4.3 8.0 Light rain.
2019-Dec-13 09:30 180 4 7.8 8.0 Light rain.
2019-Dec-13 09:25 180 5 5.2 8.0 Light rain.
2019-Dec-13 09:15 190 4 5.2 8.0 Light rain.
2019-Dec-13 09:10 200 3 7.8 8.0 Light rain.
2019-Dec-13 09:00 170 7 6.1 8.0 Light rain.
2019-Dec-13 08:55 180 6 4.3 8.0 Light rain.
2019-Dec-13 08:53 180 5 4.3 8.3 Light rain.
2019-Dec-13 08:50 190 4 4.3 8.0 Light rain.
2019-Dec-13 08:45 200 4 5.2 8.0 Light rain.
2019-Dec-13 08:40 180 7 7.8 8.0 Light rain.
2019-Dec-13 08:35 180 6 8.7 8.0 Light rain.
2019-Dec-13 08:30 180 7 8.7 8.0 Light rain.
2019-Dec-13 08:25 180 7 8.7 8.0 Light rain.
2019-Dec-13 08:20 170 8 8.7 8.0 Light rain.
2019-Dec-13 08:15 180 6 8.7 8.0
2019-Dec-13 08:10 170 8 8.7 8.0
2019-Dec-13 08:00 170 7 8.7 8.0
2019-Dec-13 07:55 170 6 8.7 8.0
2019-Dec-13 07:53 170 6 8.7 7.8
2019-Dec-13 07:50 170 6 8.7 8.0
2019-Dec-13 07:45 170 7 8.7 8.0
2019-Dec-13 07:40 180 7 8.7 8.0
2019-Dec-13 07:30 170 9 8.7 8.0
2019-Dec-13 07:25 170 10 8.7 8.0
2019-Dec-13 07:20 180 11 8.7 8.0
2019-Dec-13 07:15 170 10 8.7 8.0
2019-Dec-13 07:14 170 8 8.7 7.8
2019-Dec-13 07:10 170 11 gusting 16 8.7 8.0
2019-Dec-13 07:05 170 10 8.7 8.0
2019-Dec-13 06:55 180 10 gusting 15 8.7 8.0
2019-Dec-13 06:53 180 9 gusting 14 8.7 8.3
2019-Dec-13 06:35 190 6 6.1 8.0 Light rain.
2019-Dec-13 06:30 190 6 6.1 8.0 Light rain.
2019-Dec-13 06:25 200 5 7.0 8.0 Light rain.
2019-Dec-13 06:20 180 6 6.1 8.0 Light rain.
2019-Dec-13 06:15 170 7 4.3 8.0 Light rain.
2019-Dec-13 06:10 180 8 5.2 8.0 Rain.
2019-Dec-13 06:05 180 9 8.7 8.0 Light rain.
2019-Dec-13 06:00 180 8 8.7 8.0 Light rain.
2019-Dec-13 05:55 170 8 8.7 8.0 Light rain.
2019-Dec-13 05:53 170 8 8.7 8.3 Light rain.
2019-Dec-13 05:50 170 8 8.7 8.0 Light rain.
2019-Dec-13 05:45 180 8 8.7 9.0 Light rain.
2019-Dec-13 05:40 170 9 8.7 8.0 Light rain.
2019-Dec-13 05:30 180 10 gusting 15 8.7 8.0 Light rain.
2019-Dec-13 04:55 170 9 8.7 8.0
2019-Dec-13 04:53 170 8 gusting 14 8.7 8.3
2019-Dec-13 04:50 170 9 gusting 15 8.7 8.0
2019-Dec-13 04:46 170 9 8.7 8.3
2019-Dec-13 04:45 170 10 8.7 8.0
2019-Dec-13 04:25 170 9 8.7 8.0
2019-Dec-13 04:20 170 10 8.7 8.0
2019-Dec-13 04:10 180 9 7.0 8.0 Light rain.
2019-Dec-13 04:05 180 11 5.2 8.0 Light rain.
2019-Dec-13 03:55 190 8 7.8 8.0 Light rain.
2019-Dec-13 03:53 190 6 8.7 8.3 Light rain.
2019-Dec-13 03:50 190 9 8.7 8.0 Light rain.
2019-Dec-13 03:45 180 8 7.0 8.0 Light rain.
2019-Dec-13 03:40 180 8 6.1 8.0 Light rain.
2019-Dec-13 03:25 180 6 8.7 8.0 Light rain.
2019-Dec-13 03:20 180 6 8.7 8.0
2019-Dec-13 03:15 160 7 8.7 8.0
2019-Dec-13 03:05 170 8 8.7 8.0 Light rain.
2019-Dec-13 02:55 180 9 8.7 8.0
2019-Dec-13 02:53 180 7 8.7 7.8
2019-Dec-13 02:50 170 7 8.7 8.0
2019-Dec-13 02:45 170 7 8.7 8.0
2019-Dec-13 02:40 160 7 8.7 8.0
2019-Dec-13 02:35 160 7 8.7 8.0
2019-Dec-13 02:30 170 7 8.7 8.0
2019-Dec-13 02:25 170 5 8.7 8.0
2019-Dec-13 02:15 180 5 8.7 8.0
2019-Dec-13 02:10 170 6 8.7 8.0
2019-Dec-13 02:00 170 6 8.7 8.0
2019-Dec-13 01:55 180 5 8.7 8.0
2019-Dec-13 01:53 180 5 8.7 8.3
2019-Dec-13 01:50 170 5 8.7 8.0
2019-Dec-13 01:45 170 5 8.7 8.0
2019-Dec-13 01:40 160 6 8.7 8.0
2019-Dec-13 01:35 160 3 8.7 8.0
2019-Dec-13 01:32 160 2 8.7 8.3
2019-Dec-13 01:30 190 3 8.7 8.0
2019-Dec-13 01:25 8.7 8.0
2019-Dec-13 01:20 130 3 8.7 8.0
2019-Dec-13 01:13 170 2 8.7 8.3
2019-Dec-13 01:10 8.7 8.0
2019-Dec-13 01:05 8.7 8.0
2019-Dec-13 01:01 8.7 7.8
2019-Dec-13 01:00 8.7 8.0
2019-Dec-13 00:55 130 4 8.7 8.0
2019-Dec-13 00:53 140 4 8.7 8.3
2019-Dec-13 00:50 160 3 8.7 8.0
2019-Dec-13 00:45 170 3 8.7 8.0
2019-Dec-13 00:40 180 3 8.7 8.0
2019-Dec-13 00:35 180 3 8.7 8.0
2019-Dec-13 00:30 170 4 8.7 8.0
2019-Dec-13 00:25 170 4 8.7 8.0 Light rain.
2019-Dec-13 00:20 8.7 8.0 Light rain.
2019-Dec-13 00:15 8.7 8.0 Light rain.
2019-Dec-13 00:10 130 3 7.0 8.0 Light rain.
2019-Dec-13 00:05 130 6 5.2 8.0 Light rain.
2019-Dec-13 00:00 140 4 4.3 8.0 Light rain.
2019-Dec-12 23:55 3.0 8.0 Light rain. Mist.
2019-Dec-12 23:53 2.6 8.3 Light rain. Mist.
2019-Dec-12 23:50 2.2 8.0 Rain. Mist.
2019-Dec-12 23:45 310 4 2.2 8.0 Rain.
2019-Dec-12 23:35 320 7 2.2 8.0 Rain.
2019-Dec-12 23:29 320 8 1.7 8.3 Rain.
2019-Dec-12 23:25 320 8 1.7 9.0 Heavy rain.
2019-Dec-12 23:20 270 4 3.5 9.0 Light rain.
2019-Dec-12 23:15 190 6 5.2 9.0 Light rain.
2019-Dec-12 23:10 190 8 4.3 9.0 Light rain.
2019-Dec-12 23:05 180 9 4.3 9.0 Light rain.
2019-Dec-12 23:00 170 12 6.1 9.0 Light rain.
2019-Dec-12 22:55 180 10 7.0 9.0 Light rain.
2019-Dec-12 22:53 180 8 gusting 15 7.8 9.4 Light rain.
2019-Dec-12 22:50 180 10 7.8 9.0 Light rain.
2019-Dec-12 22:45 190 9 7.810.0 Light rain.
2019-Dec-12 22:40 180 9 7.810.0 Light rain.
2019-Dec-12 22:35 180 12 8.710.0 Light rain.
2019-Dec-12 22:25 170 10 gusting 15 8.710.0 Light rain.
2019-Dec-12 22:20 170 10 8.710.0 Light rain.
2019-Dec-12 22:15 170 9 8.710.0 Light rain.
2019-Dec-12 22:10 170 9 8.710.0
2019-Dec-12 22:05 170 10 8.710.0 Light rain.
2019-Dec-12 22:00 170 11 8.710.0 Light rain.
2019-Dec-12 21:55 170 11 gusting 17 8.711.0 Light rain.
2019-Dec-12 21:53 160 12 gusting 17 8.710.6 Light rain.
2019-Dec-12 21:45 170 9 8.711.0
2019-Dec-12 21:40 160 12 8.711.0
2019-Dec-12 21:35 160 11 8.711.0
2019-Dec-12 21:30 160 11 8.711.0
2019-Dec-12 21:25 160 13 8.711.0
2019-Dec-12 21:20 160 11 8.711.0
2019-Dec-12 21:15 160 13 8.711.0
2019-Dec-12 21:10 160 10 8.711.0
2019-Dec-12 21:05 160 12 gusting 17 8.711.0
2019-Dec-12 21:00 160 11 8.711.0
2019-Dec-12 20:55 150 13 gusting 18 8.711.0
2019-Dec-12 20:53 160 13 gusting 21 8.710.6
2019-Dec-12 20:50 150 15 8.711.0
2019-Dec-12 20:45 160 15 8.711.0
2019-Dec-12 20:40 160 13 gusting 18 8.711.0
2019-Dec-12 20:35 160 15 8.711.0
2019-Dec-12 20:30 150 16 8.711.0
2019-Dec-12 20:25 150 14 8.711.0
2019-Dec-12 20:20 160 15 gusting 20 8.711.0
2019-Dec-12 20:15 150 14 8.711.0
2019-Dec-12 20:10 150 14 8.711.0
2019-Dec-12 20:05 160 16 8.711.0
2019-Dec-12 20:00 160 13 8.711.0
2019-Dec-12 19:53 160 11 gusting 20 8.710.6
2019-Dec-12 19:50 160 13 8.711.0
2019-Dec-12 19:40 160 13 8.711.0
2019-Dec-12 19:30 160 12 4.310.0 Light rain.
2019-Dec-12 19:25 160 15 4.310.0 Light rain.
2019-Dec-12 19:20 160 14 4.310.0 Light rain.
2019-Dec-12 19:15 160 14 4.310.0 Light rain.
2019-Dec-12 19:10 160 10 gusting 15 4.310.0 Light rain.
2019-Dec-12 19:00 170 10 4.310.0 Light rain.
2019-Dec-12 18:55 170 9 7.010.0 Light rain.
2019-Dec-12 18:53 180 11 4.310.0 Light rain.
2019-Dec-12 18:50 170 10 4.310.0 Light rain.
2019-Dec-12 18:45 170 10 4.310.0 Light rain.
2019-Dec-12 18:35 170 10 4.310.0 Light rain.
2019-Dec-12 18:30 170 13 4.310.0 Light rain.
2019-Dec-12 18:20 170 11 4.310.0 Light rain.
2019-Dec-12 18:15 160 13 gusting 19 4.310.0 Light rain.
2019-Dec-12 18:10 160 13 4.310.0 Light rain.
2019-Dec-12 18:05 160 15 4.310.0 Light rain.
2019-Dec-12 17:55 160 16 8.710.0 Light rain.
2019-Dec-12 17:53 170 12 4.310.0 Light rain.
2019-Dec-12 17:50 170 12 4.310.0 Light rain.
2019-Dec-12 17:45 170 11 4.310.0 Light rain.
2019-Dec-12 17:40 170 12 7.810.0 Light rain.
2019-Dec-12 17:35 170 12 7.810.0 Light rain.
2019-Dec-12 17:30 170 12 gusting 18 8.710.0 Light rain.
2019-Dec-12 17:25 170 12 8.711.0 Light rain.
2019-Dec-12 17:20 170 12 8.711.0 Light rain.
2019-Dec-12 17:16 170 11 gusting 18 8.710.6 Light rain.
2019-Dec-12 17:15 170 10 8.711.0 Light rain.
2019-Dec-12 17:05 170 7 8.710.0 Light rain.
2019-Dec-12 17:00 180 6 8.710.0 Light rain.
2019-Dec-12 16:55 180 6 8.710.0 Light rain.
2019-Dec-12 16:53 170 6 4.310.0 Light rain.
2019-Dec-12 16:45 170 7 4.310.0 Light rain.
2019-Dec-12 16:35 160 7 4.310.0 Light rain.
2019-Dec-12 16:30 170 6 4.310.0 Light rain.
2019-Dec-12 16:25 180 6 4.310.0 Light rain.
2019-Dec-12 16:10 170 10 4.310.0 Light rain.
2019-Dec-12 16:05 190 10 4.310.0 Light rain.
2019-Dec-12 16:00 170 9 4.311.0 Light rain.